mobile4arab.com alexa rank chart, mobile4arab.com alexa rank daily changes

mobile4arab.com alexa rank chart, mobile4arab.com alexa rank daily changes

mobile4arab.com
Actual rank:
102 390

RANK HISTORY

Date Rank Diff
2017/05/27 102 390 -154
2017/05/26 102 544 +481
2017/05/25 102 063 +60
2017/05/24 102 003 +865
2017/05/23 101 138 +2 442
2017/05/22 98 696 -333
2017/05/21 99 029 +56
2017/05/20 98 973 +949
2017/05/19 98 024 -1 205
2017/05/18 99 229 +1 452
2017/05/17 97 777 +1 173
2017/05/16 96 604 +125
2017/05/15 96 479 +1 210
2017/05/14 95 269 +756
2017/05/13 94 513 -1 792
2017/05/12 96 305 +791
2017/05/11 95 514 +751
2017/05/10 94 763 +192
2017/05/09 94 571 +1 185
2017/05/08 93 386 -958
2017/05/07 94 344 +122
2017/05/06 94 222 +196
2017/05/05 94 026 +2 489
2017/05/04 91 537 +1 433
2017/05/03 90 104 +715
2017/05/02 89 389 -1 222
2017/05/01 90 611 +1 055
2017/04/30 89 556 +1 212
2017/04/29 88 344 +1 220
2017/04/28 87 124 +801
2017/04/27 86 323 +526
2017/04/26 85 797 +543
2017/04/25 85 254 +300
2017/04/24 84 954 -1 286
2017/04/23 86 240 -2 421
2017/04/22 88 661 -384
2017/04/21 89 045 +332
2017/04/20 88 713 -17
2017/04/19 88 730 +332
2017/04/18 88 398 -929
2017/04/17 89 327 -183
2017/04/16 89 510 -92
2017/04/15 89 602 -188
2017/04/14 89 790 +168
2017/04/13 89 622 +110
2017/04/12 89 512 +3 373
2017/04/11 86 139 -187
2017/04/10 86 326 +603
2017/04/09 85 723 -695
2017/04/08 86 418 +829
2017/04/07 85 589 +316
2017/04/06 85 273 +192
2017/04/05 85 081 -1 888
2017/04/04 86 969 -437
2017/04/03 87 406 -1 038
2017/04/02 88 444 +542
2017/04/01 87 902 +130
2017/03/31 87 772 +102
2017/03/30 87 670 -748
2017/03/29 88 418 -42
2017/03/28 88 460

WIDGET FOR YOUR SITE

DOMAINS WITH THE NEAREST RANK

Domain Rank
funweek.it 102 385
getresponse.es 102 386
talentnow.com 102 387
todoprogramas.com 102 388
tourporno.com 102 389
mobile4arab.com 102 390
catanzaroinforma.it 102 391
shinnihonseiyaku.co.jp 102 392
shadersmod.net 102 393
audiokinetic.com 102 394
myrevclkd.com 102 395

DOMAINS WITH THE NEAREST RANK BY TLD .com

Domain Rank
g1313g.com 102 383
tiendanube.com 102 384
talentnow.com 102 387
todoprogramas.com 102 388
tourporno.com 102 389
mobile4arab.com 102 390
audiokinetic.com 102 394
myrevclkd.com 102 395
auctionsolutions.com 102 397
latestmoviesdl.com 102 402
magna.com 102 403